Tracking 22440 objects as of 27-Feb-2021
HD Live streaming from Space Station
objects crossing your sky now

RADFXSAT-2 (AO-109)

Track RADFXSAT-2 (AO-109) now!
10-day predictions
RADFXSAT-2 (AO-109) is classified as:


NORAD ID: 47311
Int'l Code: 2021-002C
Perigee: 496.6 km
Apogee: 521.6 km
Inclination: 60.7 °
Period: 94.7 minutes
Semi major axis: 6880 km
RCS: Unknown
Launch date: January 17, 2021
Source: United States (US)
Launch site: Pegasus launched from Western Range Air Space (WRAS)
aabbcc
Your satellite tracking list
Your tracking list is empty




NASA's NSSDC Master Catalog

Two Line Element Set (TLE):
1 47311U 21002C   21057.88850852  .00001418  00000-0  74709-4 0  9995
2 47311  60.6873 344.9733 0018157 329.7496  30.2540 15.21285223  6048
Source of the keplerian elements: AFSPC